Milford, UT

5:56 PM MST on December 05, 2016 (GMT -0700)
Milford Municipal

Weather History for KMLF - October, 2013

Change the Weather History Date:

Sunday, October 6, 2013

  Actual Average Record
Temperature  
Mean Temperature 48 °F -  
Max Temperature 71 °F 72 °F 84 °F (1996)
Min Temperature 25 °F 35 °F 21 °F (1998)
Degree Days  
Heating Degree Days 17    
Moisture  
Dew Point 17 °F    
Average Humidity 31    
Maximum Humidity 63    
Minimum Humidity 6    
Precipitation  
Precipitation 0.00 in - - ()
Sea Level Pressure  
Sea Level Pressure 30.32 in    
Wind  
Wind Speed 5 mph (NW)    
Max Wind Speed 14 mph    
Max Gust Speed 18 mph    
Visibility 10 miles    
Events      
Averages and records for this station are not official NWS values.
T = Trace of Precipitation, MM = Missing Value Source: NWS Daily Summary

Daily Weather History Graph

Daily Weather History Graph

Search for Another Location

Airport or City:

Trip Planner

Search our weather history database for the weather conditions in past years. The results will help you decide how hot, cold, wet, or windy it might be!

Date:

Astronomy

Oct. 06, 2013 Rise Set
Actual Time 7:32 AM MDT 7:06 PM MDT
Civil Twilight 7:06 AM MDT 7:33 PM MDT
Nautical Twilight 6:35 AM MDT 8:03 PM MDT
Astronomical Twilight 6:04 AM MDT 8:34 PM MDT
Moon 9:19 AM MDT 8:10 PM MDT
Length of Visible Light 12h 26m
Length of Day
11h 33m
Waxing Crescent, 4% of the Moon is Illuminated
Oct 6
Waxing Crescent
Oct 11
First Quarter
Oct 18
Full
Oct 26
Last Quarter
Nov 3
New

Hourly Weather History & Observations

Time (MDT) Temp. Windchill Dew Point Humidity Pressure Visibility Wind Dir Wind Speed Gust Speed Precip Events Conditions
12:52 AM 30.9 °F 26.2 °F 14.0 °F 50% 30.43 in 10.0 mi SSW 4.6 mph - N/A   Clear
1:52 AM 32.0 °F - 15.1 °F 50% 30.41 in 10.0 mi Calm Calm - N/A   Clear
2:52 AM 30.9 °F 26.2 °F 16.0 °F 54% 30.41 in 10.0 mi SSE 4.6 mph - N/A   Clear
3:52 AM 30.0 °F 25.2 °F 16.0 °F 56% 30.40 in 10.0 mi SW 4.6 mph - N/A   Clear
4:52 AM 27.0 °F 20.5 °F 16.0 °F 63% 30.40 in 10.0 mi South 5.8 mph - N/A   Clear
5:52 AM 28.9 °F 25.2 °F 16.0 °F 58% 30.39 in 10.0 mi South 3.5 mph - N/A   Clear
6:52 AM 27.0 °F 21.6 °F 16.0 °F 63% 30.41 in 10.0 mi SSW 4.6 mph - N/A   Clear
7:52 AM 30.0 °F - 16.0 °F 56% 30.43 in 10.0 mi Calm Calm - N/A   Clear
8:52 AM 37.0 °F - 18.0 °F 46% 30.43 in 10.0 mi Calm Calm - N/A   Clear
9:52 AM 45.0 °F - 19.0 °F 36% 30.41 in 10.0 mi Calm Calm - N/A   Clear
10:52 AM 51.1 °F - 19.0 °F 28% 30.38 in 10.0 mi NNE 6.9 mph - N/A   Clear
11:52 AM 57.9 °F - 19.0 °F 22% 30.36 in 10.0 mi Variable 6.9 mph - N/A   Clear
12:52 PM 62.1 °F - 18.0 °F 18% 30.33 in 10.0 mi North 8.1 mph - N/A   Clear
1:52 PM 64.0 °F - 18.0 °F 17% 30.29 in 10.0 mi NNE 10.4 mph - N/A   Clear
2:52 PM 66.9 °F - 17.1 °F 15% 30.25 in 10.0 mi NNE 13.8 mph 18.4 mph N/A   Clear
3:52 PM 68.0 °F - 17.1 °F 14% 30.23 in 10.0 mi NNE 12.7 mph 18.4 mph N/A   Clear
4:52 PM 70.0 °F - 15.1 °F 12% 30.21 in 10.0 mi North 12.7 mph - N/A   Clear
5:52 PM 68.0 °F - 15.1 °F 13% 30.21 in 10.0 mi North 12.7 mph - N/A   Clear
6:52 PM 64.0 °F - 15.1 °F 15% 30.22 in 10.0 mi North 9.2 mph - N/A   Clear
7:52 PM 55.9 °F - 15.1 °F 20% 30.24 in 10.0 mi NNW 9.2 mph - N/A   Clear
8:52 PM 51.1 °F - 16.0 °F 25% 30.23 in 10.0 mi Calm Calm - N/A   Clear
9:52 PM 48.9 °F - 16.0 °F 27% 30.21 in 10.0 mi West 3.5 mph - N/A   Clear
10:52 PM 46.0 °F - 16.0 °F 30% 30.20 in 10.0 mi Calm Calm - N/A   Clear
11:52 PM 46.0 °F 41.9 °F 17.1 °F 31% 30.17 in 10.0 mi West 8.1 mph - N/A   Clear